Airfield :
LOGIN :

Register | Disclaimer

   EN    FR    IT 

 










Legend :    VFR   Marginal VFR   IFR   Intensive IFR   Very Intensive IFR
Visi :
Ceiling :
>= 8 km
>= 3000ft
5 to 8 km
1000 to 3000 ft
1500m to 5 km
500 to 1000 ft
800 to 1500m
200 to 500 ft
< 800m
< 200 ft
Symbols :   Thunderstorms  Fog  Heavy snow  Heavy precipitations  Wind > 20 kt
SIGMETs :     Misc.  Thunderstorms  Icing  Turbulence  Mountain Waves  Volcanic Ashes







- Airport Elevation : 1895 ft


LSMM - Meiringen

CURRENT METAR :
  • 181620Z AUTO 09005KT 020V170 9999NDV SCT042 BKN140 24/15 Q1021 RMK

EXPIRED METARs :
  • 181550Z AUTO VRB02KT 9999NDV FEW042 BKN075 BKN150 24/16 Q1021 RMK
  • 181520Z AUTO 05008KT 330V110 9999NDV FEW037 SCT055 24/16 Q1021 RMK
  • 181450Z AUTO VRB02KT 9999NDV FEW070 25/16 Q1021 RMK
  • 181420Z AUTO VRB03KT 9999NDV FEW075 25/16 Q1021 RMK
  • 181350Z AUTO 23005KT 170V290 9999NDV FEW076 24/16 Q1021 RMK

Expired Forecast.
No reported NOTAMs for that airfield.



MET'MAP, your aeronautical weather chart ! - Copyright ORBIFLY December 2007 - Disclaimer

ORBIFLY MET'MAP TEAM :

Programming & Development : Alexandra Zaïnal
Concept & Development : Baudouin d'Aumeries
Co-Development & Prog : Marc-Olivier Méhu
Technical & hardware support : Manuel Goepfert

Contact : metmap@orbifly.com




SOURCES & CREDITS :

   NOAA